Find Starlink 1273

NORAD ID: 45367 Int'l Des: 2020-019 Owner: SPXS Country: US Constellation: starlink operational
LEOCIRCULAR

实时位置

正在加载3D地球...

关于 Starlink 1273

正在加载描述...

即将过境

Passes for default location (London). Set your location on the main map for personalized predictions.

高度历史

Loading altitude history...

两行轨道根数

1 45367U 20019H 26123.72194633 .00083927 00000-0 13401-2 0 9996
2 45367 53.0462 251.3750 0004147 282.9702 77.0844 15.52490082338422
Epoch: May 3, 2026 • Age: 15 hours

当前状态

高度 417.8 km
速度 7.66 km/s
星下点 -31.96°S, 111.28°E
发射日期 Mar 18, 2020
运行时间 6.1 years
类型 internet

技术详情

分类 Payload
质量 260.00 kg
干质量 248.00 kg
总质量 260.00 kg
长度 0.20 m
直径 2.80 m
跨度 9.00 m
形状 Box + pan
制造商 SPXS
平台类型 Starlink
阶段状态 In Orbit
所有者/国家 SPXS/US

Most Searched